Regional Weather Roundup
Issued by NWS Little Rock, AR

Home | Current Version | Previous Version | Text Only | Print | Product List | Glossary Off
Versions: 1 2 3 4 5 6 7 8 9 10 11 12 13 14 15 16 17 18 19 20 21 22 23 24 25 26 27

000
ASUS44 KLZK 252305
RWRLZK

WEATHER ROUNDUP FOR ARKANSAS
NATIONAL WEATHER SERVICE LITTLE ROCK AR
600 PM CDT WED MAY 25 2016

NOTE: "FAIR" INDICATES FEW OR NO CLOUDS BELOW 12,000 FEET WITH NO
SIGNIFICANT WEATHER AND/OR OBSTRUCTIONS TO VISIBILITY.

ARZ001-003-010-029-260000-
NORTHWEST ARKANSAS

CITY           SKY/WX    TMP DP  RH WIND       PRES   REMARKS
FAYETTEVILLE   MOSUNNY   78  72  81 S12       29.95F
FORT SMITH     MOSUNNY   86  72  62 S5        29.91F HX  92
HARRISON       PTSUNNY   79  68  69 S9        29.99S
BENTONVILLE    SUNNY     81  66  61 S10G17    29.96S
ROGERS         MOSUNNY   81  70  69 S12G20    29.96S
SILOAM SPGS    PTSUNNY   81  66  61 S15G21    29.94F
HIGHFILL       PTSUNNY   81  72  74 S14G23    29.94F HX  85
$$

ARZ004-005-016-260000-
NORTH CENTRAL ARKANSAS

CITY           SKY/WX    TMP DP  RH WIND       PRES   REMARKS
BATESVILLE     CLOUDY    73  66  78 SE3       30.01F
FLIPPIN        CLOUDY   N/A N/A N/A SE6       29.96S
MTN HOME       CLOUDY    73  66  78 SE6       29.98S
$$

ARZ040-041-260000-
WEST CENTRAL ARKANSAS

CITY           SKY/WX    TMP DP  RH WIND       PRES   REMARKS
MENA           SUNNY     86  75  70 CALM      29.97F HX  95
MOUNT IDA      MOSUNNY   86  73  65 VRB3      29.95S HX  93
$$

ARZ009-017-025-026-028-260000-
NORTHEAST ARKANSAS

CITY           SKY/WX    TMP DP  RH WIND       PRES   REMARKS
CORNING          N/A     75  68  78 SW8       30.02S
JONESBORO      PTSUNNY   72  66  81 SW7       30.02R
NEWPORT        CLOUDY    76  70  82 SW6       30.02S
WALNUT RIDGE   PTSUNNY   73  64  73 SW9       30.01S
BLYTHEVILLE    CLOUDY    69  65  86 S3        30.04R
$$

ARZ022-023-033-042-044-260000-
CENTRAL ARKANSAS

CITY           SKY/WX    TMP DP  RH WIND       PRES   REMARKS
LITTLE ROCK    PTSUNNY   84  74  71 S9        29.97F HX  91
N LITTLE ROCK    N/A     82  74  79 S7        29.96F HX  87
SEARCY         MOSUNNY   79  73  82 SE7       30.01S
HOT SPRINGS    MOSUNNY   86  73  65 S9        29.97S HX  93
RUSSELLVILLE   MOSUNNY   79  72  79 VRB3      29.96F
CLINTON        CLOUDY    75  72  88 CALM      29.99F
$$

ARZ036-260000-
EAST ARKANSAS

CITY           SKY/WX    TMP DP  RH WIND       PRES   REMARKS
WEST MEMPHIS   CLOUDY    74  69  85 CALM      30.02R
$$

ARZ050-053-066-070-073-260000-
SOUTHWEST ARKANSAS

CITY           SKY/WX    TMP DP  RH WIND       PRES   REMARKS
ARKADELPHIA    FAIR      90  79  70 S8        29.97R HX 106
CAMDEN         MOSUNNY   86  73  66 SE9       29.97F HX  93
TEXARKANA      MOSUNNY   86  73  65 S8        29.96F HX  93
EL DORADO      PTSUNNY   87  76  69 S12       29.99F HX  97
DE QUEEN       SUNNY     88  74  63 SW9       29.93S HX  96
$$

ARZ056-057-069-260000-
SOUTHEAST ARKANSAS

CITY           SKY/WX    TMP DP  RH WIND       PRES   REMARKS
PINE BLUFF     SUNNY     84  73  69 S13       29.98F HX  90
STUTTGART      SUNNY     88  70  55 S18       29.99F HX  92
MONTICELLO     CLOUDY    83  74  74 S12G21    29.99F HX  89

$$






USA.gov is the U.S. government's official web portal to all federal, state and local government web resources and services.